N0DNE Weather Reports


Display with metric or nautical units.
time (UTC)temp
F
wind
direction
speed
MPH
gust
MPH
rain 1hr
in
rain 24hr
in
rain mn
in
humidity
%
barometer
mb
20260503020519 73 0 0.0 0.0 0.00 0.00 0.00 29 1012.0
20260503020038 74 0 0.0 3.0 0.00 0.00 0.00 29 1011.9
20260503015519 74 0 0.0 3.0 0.00 0.00 0.00 29 1012.0
20260503015019 74 0 0.0 0.0 0.00 0.00 0.00 29 1011.9
20260503014536 75 0 0.0 3.0 0.00 0.00 0.00 28 1011.9
20260503014021 75 0 0.0 3.0 0.00 0.00 0.00 28 1011.9
20260503013521 75 0 0.0 3.0 0.00 0.00 0.00 28 1012.0
20260503013036 76 0 0.0 3.0 0.00 0.00 0.00 28 1012.0
20260503012520 76 297 0.0 0.0 0.00 0.00 0.00 27 1012.1
20260503012021 76 0 0.0 0.0 0.00 0.00 0.00 27 1012.2
20260503011548 76 0 0.0 2.0 0.00 0.00 0.00 25 1012.2
20260503011024 76 0 0.0 2.0 0.00 0.00 0.00 25 1012.2
20260503010519 77 334 0.0 1.0 0.00 0.00 0.00 25 1012.2
20260503010051 77 0 0.0 1.0 0.00 0.00 0.00 23 1012.2
20260503005520 77 0 0.0 1.0 0.00 0.00 0.00 23 1012.2
20260503005019 77 0 0.0 1.0 0.00 0.00 0.00 22 1012.2
20260503004540 78 0 0.0 1.0 0.00 0.00 0.00 22 1012.2
20260503004018 78 0 0.0 4.0 0.00 0.00 0.00 22 1012.2
20260503003520 78 0 0.0 4.0 0.00 0.00 0.00 22 1012.2
20260503003049 78 0 0.0 4.0 0.00 0.00 0.00 21 1012.2
20260503002524 78 0 0.0 4.0 0.00 0.00 0.00 21 1012.2
20260503002020 78 0 0.0 7.0 0.00 0.00 0.00 21 1012.2
20260503001537 79 0 2.0 7.0 0.00 0.00 0.00 21 1012.2
20260503001019 79 0 1.0 5.0 0.00 0.00 0.00 21 1012.2
20260503000519 80 0 0.0 3.0 0.00 0.00 0.00 22 1012.2
20260503000049 80 0 0.0 4.0 0.00 0.00 0.00 22 1012.2
20260502235519 80 0 0.0 4.0 0.00 0.00 0.00 21 1012.2
20260502235021 80 0 0.0 4.0 0.00 0.00 0.00 21 1012.3
20260502234538 80 0 0.0 2.0 0.00 0.00 0.00 21 1012.2
20260502234020 80 0 0.0 2.0 0.00 0.00 0.00 21 1012.4
20260502233521 80 0 0.0 3.0 0.00 0.00 0.00 20 1012.5
20260502233040 81 292 0.0 4.0 0.00 0.00 0.00 21 1012.5
20260502232520 81 0 0.0 8.0 0.00 0.00 0.00 20 1012.5
20260502232018 81 26 3.0 8.0 0.00 0.00 0.00 17 1012.4
20260502231544 82 0 0.0 3.0 0.00 0.00 0.00 20 1012.6
20260502231022 82 0 0.0 3.0 0.00 0.00 0.00 19 1012.5
20260502230521 83 0 0.0 3.0 0.00 0.00 0.00 19 1012.7
20260502230040 83 306 0.0 3.0 0.00 0.00 0.00 18 1012.8
20260502225519 83 0 0.0 2.0 0.00 0.00 0.00 19 1012.9
20260502225022 82 0 0.0 0.0 0.00 0.00 0.00 19 1012.9
20260502224537 82 0 0.0 0.0 0.00 0.00 0.00 22 1013.0
20260502224019 82 0 0.0 0.0 0.00 0.00 0.00 21 1013.0
20260502223521 82 0 0.0 0.0 0.00 0.00 0.00 22 1013.1
20260502223038 82 0 0.0 0.0 0.00 0.00 0.00 20 1013.1
20260502222518 82 0 0.0 1.0 0.00 0.00 0.00 20 1013.2
20260502222020 82 0 0.0 3.0 0.00 0.00 0.00 20 1013.2
20260502221535 82 0 0.0 3.0 0.00 0.00 0.00 19 1013.3
20260502221023 82 0 0.0 1.0 0.00 0.00 0.00 20 1013.3
20260502220518 83 0 0.0 0.0 0.00 0.00 0.00 19 1013.4
20260502220043 83 0 0.0 1.0 0.00 0.00 0.00 19 1013.3
20260502215519 83 0 0.0 3.0 0.00 0.00 0.00 22 1013.5
20260502215021 83 0 0.0 3.0 0.00 0.00 0.00 20 1013.5
20260502214538 83 301 0.0 2.0 0.00 0.00 0.00 22 1013.6
20260502214018 83 0 0.0 0.0 0.00 0.00 0.00 23 1013.7
20260502213520 83 0 0.0 0.0 0.00 0.00 0.00 21 1013.7
20260502213038 82 0 0.0 4.0 0.00 0.00 0.00 23 1013.8
20260502212521 82 0 0.0 4.0 0.00 0.00 0.00 24 1013.7
20260502212021 82 349 0.0 1.0 0.00 0.00 0.00 24 1014.0
20260502211546 81 0 0.0 0.0 0.00 0.00 0.00 26 1014.1
20260502211020 81 0 0.0 0.0 0.00 0.00 0.00 28 1014.1
20260502210520 81 0 0.0 0.0 0.00 0.00 0.00 24 1014.2
20260502210036 80 0 0.0 0.0 0.00 0.00 0.00 28 1014.3
20260502205518 81 0 0.0 6.0 0.00 0.00 0.00 25 1014.4
20260502205020 80 0 0.0 6.0 0.00 0.00 0.00 29 1014.4
20260502204542 80 0 0.0 6.0 0.00 0.00 0.00 26 1014.5
20260502204020 80 0 0.0 5.0 0.00 0.00 0.00 27 1014.5
20260502203519 80 0 1.0 5.0 0.00 0.00 0.00 24 1014.6
20260502203041 79 0 0.0 5.0 0.00 0.00 0.00 31 1014.6
20260502202522 79 0 0.0 5.0 0.00 0.00 0.00 28 1014.7
20260502202020 78 0 0.0 0.0 0.00 0.00 0.00 28 1014.7
20260502201540 79 0 0.0 0.0 0.00 0.00 0.00 26 1014.8
20260502201024 79 0 0.0 0.0 0.00 0.00 0.00 28 1014.9
20260502200523 79 0 0.0 0.0 0.00 0.00 0.00 28 1015.0
20260502200045 78 0 0.0 0.0 0.00 0.00 0.00 29 1015.0
20260502195521 78 0 0.0 0.0 0.00 0.00 0.00 31 1015.2
20260502195020 77 0 0.0 0.0 0.00 0.00 0.00 29 1015.2
20260502194536 76 0 0.0 0.0 0.00 0.00 0.00 31 1015.3
20260502194022 76 0 0.0 0.0 0.00 0.00 0.00 32 1015.5
20260502193520 75 0 0.0 0.0 0.00 0.00 0.00 32 1015.6
20260502193037 75 0 0.0 0.0 0.00 0.00 0.00 31 1015.8
20260502192522 75 0 0.0 0.0 0.00 0.00 0.00 32 1015.9
20260502192020 76 0 0.0 0.0 0.00 0.00 0.00 32 1016.0
20260502191550 76 0 0.0 0.0 0.00 0.00 0.00 31 1016.0
20260502191021 75 0 0.0 0.0 0.00 0.00 0.00 32 1016.0
20260502190521 75 0 0.0 0.0 0.00 0.00 0.00 32 1016.1
20260502190041 75 0 0.0 0.0 0.00 0.00 0.00 33 1016.1
20260502185518 74 0 0.0 0.0 0.00 0.00 0.00 31 1016.2
20260502185022 75 0 0.0 0.0 0.00 0.00 0.00 30 1016.2
20260502184541 74 0 0.0 0.0 0.00 0.00 0.00 30 1016.3
20260502184021 73 0 0.0 0.0 0.00 0.00 0.00 37 1016.3
20260502183518 73 0 0.0 2.0 0.00 0.00 0.00 33 1016.4
20260502183040 73 0 0.0 2.0 0.00 0.00 0.00 32 1016.4
20260502182521 73 0 0.0 2.0 0.00 0.00 0.00 33 1016.5
20260502182020 72 0 0.0 2.0 0.00 0.00 0.00 37 1016.6
20260502181536 72 0 0.0 2.0 0.00 0.00 0.00 35 1016.6
20260502181021 71 0 0.0 2.0 0.00 0.00 0.00 33 1016.7
20260502180521 71 0 0.0 2.0 0.00 0.00 0.00 33 1016.6
20260502164020 62 228 0.0 1.0 0.00 0.00 0.00 46 1017.5
20260502163519 62 0 0.0 1.0 0.00 0.00 0.00 47 1017.5
20260502163051 61 0 0.0 3.0 0.00 0.00 0.00 48 1017.6
20260502162519 60 0 0.0 3.0 0.00 0.00 0.00 47 1017.6
20260502162022 59 0 0.0 1.0 0.00 0.00 0.00 48 1017.6
20260502161541 58 0 0.0 1.0 0.00 0.00 0.00 48 1017.6
20260502161021 58 0 0.0 0.0 0.00 0.00 0.00 49 1017.7
20260502160521 57 0 0.0 1.0 0.00 0.00 0.00 53 1017.7
20260502152020 52 0 0.0 1.0 0.00 0.00 0.00 55 1017.5
20260502151546 51 0 0.0 1.0 0.00 0.00 0.00 57 1017.4
20260502151020 51 0 0.0 1.0 0.00 0.00 0.00 63 1017.4
20260502150520 50 0 0.0 0.0 0.00 0.00 0.00 65 1017.4
20260502130520 42 0 0.0 0.0 0.00 0.00 0.00 83 1016.8
20260502123520 43 0 0.0 0.0 0.00 0.00 0.00 81 1016.6
20260502123045 43 0 0.0 0.0 0.00 0.00 0.00 79 1016.6
20260502122520 43 0 0.0 0.0 0.00 0.00 0.00 79 1016.5
20260502122021 43 0 0.0 0.0 0.00 0.00 0.00 79 1016.5
20260502121536 44 0 0.0 0.0 0.00 0.00 0.00 79 1016.6
20260502121020 44 0 0.0 0.0 0.00 0.00 0.00 80 1016.5
20260502120520 44 0 0.0 0.0 0.00 0.00 0.00 80 1016.4
20260502115522 43 0 0.0 0.0 0.00 0.00 0.00 80 1016.6
20260502115021 43 0 0.0 0.0 0.00 0.00 0.00 79 1016.5
20260502114541 43 0 0.0 0.0 0.00 0.00 0.00 79 1016.6
20260502114019 44 0 0.0 0.0 0.00 0.00 0.00 79 1016.5
20260502113521 44 0 0.0 0.0 0.00 0.00 0.00 80 1016.5
20260502113040 44 0 0.0 0.0 0.00 0.00 0.00 80 1016.6
20260502112524 44 0 0.0 0.0 0.00 0.00 0.00 80 1016.6
20260502112024 44 0 0.0 0.0 0.00 0.00 0.00 81 1016.5
20260502111547 44 0 0.0 0.0 0.00 0.00 0.00 80 1016.5
20260502111020 45 0 0.0 0.0 0.00 0.00 0.00 78 1016.5
20260502110520 45 0 0.0 0.0 0.00 0.00 0.00 77 1016.5
20260502110036 45 0 0.0 0.0 0.00 0.00 0.00 76 1016.5
20260502105522 45 0 0.0 0.0 0.00 0.00 0.00 75 1016.5
20260502105020 45 0 0.0 0.0 0.00 0.00 0.00 75 1016.6
20260502104544 45 0 0.0 0.0 0.00 0.00 0.00 76 1016.5
20260502104021 46 0 0.0 0.0 0.00 0.00 0.00 76 1016.6
20260502103555 46 0 0.0 0.0 0.00 0.00 0.00 78 1016.5
20260502103041 46 0 0.0 0.0 0.00 0.00 0.00 76 1016.6
20260502102519 46 0 0.0 0.0 0.00 0.00 0.00 76 1016.6
20260502102020 46 0 0.0 0.0 0.00 0.00 0.00 74 1016.6
20260502101544 46 0 0.0 0.0 0.00 0.00 0.00 73 1016.5
20260502101019 46 0 0.0 0.0 0.00 0.00 0.00 73 1016.5
20260502100520 46 0 0.0 0.0 0.00 0.00 0.00 73 1016.5
20260502091020 46 0 0.0 0.0 0.00 0.00 0.00 77 1016.7
20260502090521 46 0 0.0 0.0 0.00 0.00 0.00 76 1016.7
20260502071019 49 0 0.0 0.0 0.00 0.00 0.00 69 1016.7
20260502070518 50 0 0.0 0.0 0.00 0.00 0.00 69 1016.7
20260502070041 50 0 0.0 0.0 0.00 0.00 0.00 68 1016.8
20260502065520 50 0 0.0 0.0 0.00 0.00 0.00 67 1016.7
20260502065021 50 0 0.0 0.0 0.00 0.00 0.00 67 1016.7
20260502064542 50 0 0.0 0.0 0.00 0.00 0.00 65 1016.8
20260502064023 51 0 0.0 0.0 0.00 0.00 0.00 60 1016.8
20260502063519 51 0 0.0 0.0 0.00 0.00 0.00 58 1016.8
20260502063054 51 0 0.0 0.0 0.00 0.00 0.00 57 1016.8
20260502062521 51 0 0.0 0.0 0.00 0.00 0.00 56 1016.9
20260502062020 52 0 0.0 0.0 0.00 0.00 0.00 56 1016.7
20260502061547 52 0 0.0 0.0 0.00 0.00 0.00 54 1016.6
20260502061021 53 0 0.0 0.0 0.00 0.00 0.00 54 1016.6
20260502060519 53 0 0.0 0.0 0.00 0.00 0.00 54 1016.7
20260502060040 53 0 0.0 0.0 0.00 0.00 0.00 54 1016.6
20260502055521 53 0 0.0 0.0 0.00 0.00 0.00 54 1016.7
20260502055021 53 0 0.0 0.0 0.00 0.00 0.00 53 1016.6
20260502054543 54 0 0.0 0.0 0.00 0.00 0.00 53 1016.6
20260502054020 54 0 0.0 0.0 0.00 0.00 0.00 53 1016.6
20260502053519 54 0 0.0 0.0 0.00 0.00 0.00 53 1016.6
20260502053050 54 0 0.0 0.0 0.00 0.00 0.00 52 1016.6
20260502052521 55 0 0.0 0.0 0.00 0.00 0.00 52 1016.6
20260502052020 55 0 0.0 0.0 0.00 0.00 0.00 52 1016.6
20260502051538 55 0 0.0 0.0 0.00 0.00 0.00 51 1016.6
20260502051019 55 0 0.0 0.0 0.00 0.00 0.00 51 1016.6
20260502050520 56 0 0.0 0.0 0.00 0.00 0.00 50 1016.6
20260502050036 56 0 0.0 0.0 0.00 0.00 0.00 49 1016.6
20260502045519 56 0 0.0 0.0 0.00 0.00 0.00 48 1016.6
20260502045021 57 0 0.0 0.0 0.00 0.00 0.00 47 1016.6
20260502044541 57 0 0.0 0.0 0.00 0.00 0.00 46 1016.6
20260502044018 57 0 0.0 0.0 0.00 0.00 0.00 46 1016.6
20260502043520 58 0 0.0 0.0 0.00 0.00 0.00 46 1016.6
20260502043042 58 0 0.0 0.0 0.00 0.00 0.00 46 1016.6
20260502042519 58 0 0.0 0.0 0.00 0.00 0.00 46 1016.6
20260502042021 58 0 0.0 0.0 0.00 0.00 0.00 46 1016.6
20260502041539 58 0 0.0 0.0 0.00 0.00 0.00 46 1016.7
20260502041022 59 0 0.0 0.0 0.00 0.00 0.00 45 1016.6
20260502040521 59 0 0.0 0.0 0.00 0.00 0.00 45 1016.5
20260502040040 60 0 0.0 0.0 0.00 0.00 0.00 45 1016.6
20260502035521 60 0 0.0 0.0 0.00 0.00 0.00 44 1016.6
20260502035019 60 0 0.0 0.0 0.00 0.00 0.00 43 1016.5
20260502034538 61 0 0.0 0.0 0.00 0.00 0.00 43 1016.5
20260502034021 62 0 0.0 0.0 0.00 0.00 0.00 45 1016.4
20260502033520 62 0 0.0 0.0 0.00 0.00 0.00 43 1016.5
20260502033041 63 0 0.0 0.0 0.00 0.00 0.00 40 1016.4
20260502032519 63 0 0.0 0.0 0.00 0.00 0.00 39 1016.4
20260502032018 64 0 0.0 0.0 0.00 0.00 0.00 38 1016.3
20260502031537 65 0 0.0 0.0 0.00 0.00 0.00 37 1016.3
20260502031019 65 0 0.0 0.0 0.00 0.00 0.00 37 1016.2
20260502030519 66 0 0.0 0.0 0.00 0.00 0.00 35 1016.2
20260502030048 67 0 0.0 0.0 0.00 0.00 0.00 34 1016.2
20260502025518 67 0 0.0 0.0 0.00 0.00 0.00 32 1016.3
20260502025019 68 0 0.0 0.0 0.00 0.00 0.00 31 1016.1
20260502024543 68 0 0.0 0.0 0.00 0.00 0.00 30 1016.1
20260502024025 69 0 0.0 0.0 0.00 0.00 0.00 29 1016.1
20260502023519 69 0 0.0 0.0 0.00 0.00 0.00 28 1016.1
20260502023037 70 0 0.0 0.0 0.00 0.00 0.00 27 1016.1
20260502022522 70 0 0.0 0.0 0.00 0.00 0.00 25 1016.1
20260502022022 71 0 0.0 0.0 0.00 0.00 0.00 24 1016.0
20260502021542 71 0 0.0 0.0 0.00 0.00 0.00 23 1016.0
20260502021019 71 0 0.0 0.0 0.00 0.00 0.00 22 1016.0